www.pogodaiklimat.ru

Погода и климат >> Архив погоды >> Россия >> Якутия >> Охотский Перевоз


ПОГОДА в Охотском Перевозе

  • Прогноз погоды в Охотском Перевозе
  • Монитор погоды в Охотском Перевозе
  • Климат города

АРХИВ ПОГОДЫ в Охотском Перевозе

Время (UTC), дата Ветер
(напр.,м/с)
 
Видим.   Явления Облачность Т
(С)
Тd
(С)
f
(%)
Тe
(С)
Тes
(С)
Комфортность P
(гПа)
Po
(гПа)
Тmin
(С)
Tmax
(С)
R
(мм)
R24
(мм)
S
(см)
18 12.11 С 2 10 км 10/0
[As op]
-8.5 -9.6 92 -13 -13 1023.3 1004.9
21 12.11 штиль 0 10 км 10/0
[As op]
-10.3 -10.9 95 -11 -11 1023.2 1004.6 -10.3 20
00 13.11 штиль 0 20 км 10/0
[As op]
-10.4 -11.0 95 -11 -11 1022.9 1004.3 -10.8
03 13.11 штиль 0 20 км 9/0
[As op]
-8.0 -8.7 95 -9 -9 1022.5 1004.1
06 13.11 Ю 2 20 км 10/0
[As op]
-6.8 -8.0 91 -11 -11 1022.7 1004.4
09 13.11 З 1 10 км 10/0
[As op]
-7.3 -8.2 93 -10 -10 1023.4 1005.1 -6.3
12 13.11 З 1 10 км {снег} 10/0
[As trans]
-8.1 -8.0 100 -11 -11 1024.1 1005.6
15 13.11 З 1 4000 м слабый снег 10/0
[As op]
-7.4 -8.0 95 -10 -10 1025.1 1006.8
18 13.11 СЗ 1 4000 м слабый снег 10/0
[As op]
-9.4 -9.7 98 -12 -12 1025.8 1007.3
21 13.11 СЗ 2 4000 м слабый снег 10/0
[As op]
-11.4 -12.0 95 -16 -16 1026.8 1008.1 -11.4 0.3 20
00 14.11 штиль 0 4000 м слабый снег 10/0
[As op]
-12.3 -12.9 95 -12 -12 1028.3 1009.5 -12.3
03 14.11 СЗ 2 4000 м слабый снег 10/0
[As op]
-13.0 -14.3 90 -18 -18 1028.8 1009.9
06 14.11 СЗ 1 4000 м слабый снег 10/0
[As op]
-13.1 -15.1 85 -15 -15 1029.6 1010.7
09 14.11 С 1 4000 м слабый снег 10/0
[As op]
-13.9 -15.2 90 -16 -16 1029.7 1010.8 -11.1 0.6
12 14.11 С 2 10 км {снег} 10/0
[As trans]
-14.2 -15.5 90 -19 -19 1029.5 1010.5
15 14.11 С 2 10 км 10/0
[As op]
-14.3 -15.6 90 -19 -19 1027.6 1008.6
18 14.11 С 3 10 км 10/0
[As op]
-14.1 -15.4 90 -21 -21 1025.6 1005.6
21 14.11 СВ 4 2000 м снег 10/0
[As op]
-14.5 -15.1 95 -22 -22 1023.2 1004.3 -14.9 0.5 24
00 15.11 С 3 20 км в посл. час снег 10/0
[As op]
-14.4 -15.7 90 -21 -21 1021.4 1002.5
03 15.11 З 1 4000 м слабый снег 10/0
[As op]
-13.9 -15.2 90 -16 -16 1021.7 1002.9
06 15.11 З 1 4000 м слабый снег 10/0
[As trans]
-14.4 -16.4 85 -17 -17 1023.6 1004.7
09 15.11 З 2 4000 м слабый снег 10/0
[As op]
-16.3 -18.2 85 -22 -22 1025.4 1006.4 -13.4 3
12 15.11 ЮЗ 2 4000 м слабый снег 6/0
[As op]
-19.3 -21.2 85 -25 -25 1026.3 1007.1
15 15.11 СВ 1 4000 м слабый снег 10/0
[Cs]
-21.0 -22.2 90 -24 -24 1025.7 1006.3
18 15.11 С 1 4000 м слабый снег 10/0
[Cs]
-23.3 -24.5 90 -27 -27 1024.6 1005.1
21 15.11 С 1 4000 м слабый снег 8/0
[Cs]
-23.0 -24.3 89 -26 -26 1023.1 1003.6 -23.8 0.4 27
00 16.11 С 2 4000 м слабый снег 9/0
[Ac trans Cs]
-21.6 -22.8 90 -28 -28 1021.5 1002.2
03 16.11 С 2 4000 м слабый снег 10/0
[Cs]
-20.1 -21.3 90 -26 -26 1019.6 1000.4
06 16.11 С 2 2000 м снег 10/0
[As op]
-18.7 -20.6 85 -24 -24 1018.1 999.0
09 16.11 СВ 2 4000 м слабый снег 10/0
[As op]
-18.5 -19.7 90 -24 -24 1017.7 998.6 -18.5 1
12 16.11 СЗ 2 4000 м слабый снег 10/0
[As op]
-18.4 -19.6 90 -24 -24 1017.5 998.4
15 16.11 С 1 4000 м слабый снег 10/0
[As op]
-19.6 -20.8 90 -23 -23 1017.5 998.3
18 16.11 С 2 4000 м слабый снег 10/0
[As op]
-18.9 -20.1 90 -25 -25 1017.4 998.3
21 16.11 С 1 4000 м {снег} 10/0
[As op]
-18.6 -19.8 90 -21 -21 1017.7 998.6 -19.7 0.6 27
00 17.11 штиль 0 20 км {снег} 9/0
[As op Ci fib]
-19.9 -21.1 90 -20 -20 1018.3 999.1 -20.0
03 17.11 СВ 1 20 км 9/0
[Ac As]
-18.9 -20.1 90 -22 -22 1018.4 999.3
06 17.11 штиль 0 20 км 9/0
[Ac As]
-18.1 -20.0 85 -18 -18 1018.6 999.5
09 17.11 штиль 0 10 км 10/0
[Cs]
-20.7 -21.9 90 -21 -21 1019.4 1000.1 -17.6
12 17.11 штиль 0 4000 м слабый снег 10/0
[Cs]
-18.8 -20.0 90 -19 -19 1019.3 1000.2
15 17.11 штиль 0 4000 м слабый снег 10/0
[Cs]
-17.7 -18.9 90 -18 -18 1019.0 1000.0
18 17.11 штиль 0 4000 м слабый снег 10/0
[As op]
-17.4 -18.6 90 -17 -17 1018.8 999.8
21 17.11 ЮЗ 1 4000 м слабый снег 10/0
[As op]
-16.9 -17.5 95 -20 -20 1018.8 999.8 -20.8 0.0 27
00 18.11 З 1 4000 м слабый снег 10/0
[As op]
-16.4 -17.0 95 -19 -19 1018.6 999.7
03 18.11 штиль 0 4000 м слабый снег 10/0
[As op]
-15.8 -17.1 90 -16 -16 1017.8 998.9
06 18.11 СЗ 1 4000 м слабый снег 10/0
[As op]
-16.3 -17.6 90 -19 -19 1017.8 998.9
09 18.11 С 2 4000 м слабый снег 10/0
[As op]
-17.4 -18.6 90 -23 -23 1018.5 999.5 -15.7 0.4
12 18.11 С 1 4000 м слабый снег 10/0
[As op]
-18.9 -20.1 90 -22 -22 1019.4 1000.3
15 18.11 штиль 0 4000 м слабый снег 10/0
[As op]
-19.3 -20.5 90 -19 -19 1019.2 1000.1
18 18.11 штиль 0 10 км {снег} 10/0
[As op]
-19.6 -20.8 90 -20 -20 1019.5 1000.3
21 18.11 СЗ 1 4000 м слабый снег 10/0
[As op]
-19.8 -21.0 90 -23 -23 1019.0 999.8 -19.8 0.3 27
00 19.11 СЗ 1 4000 м слабый снег 10/0
[As op]
-19.8 -21.0 90 -23 -23 1019.2 1000.0
03 19.11 СЗ 1 4000 м слабый снег 10/0
[As op]
-19.3 -20.5 90 -22 -22 1018.7 999.6
06 19.11 штиль 0 4000 м слабый снег 10/0
[As op]
-19.2 -21.1 85 -19 -19 1018.9 999.8
09 19.11 штиль 0 10 км {снег} 10/0
[As op]
-20.1 -21.3 90 -20 -20 1019.3 1000.1 -18.7 0.3
12 19.11 СВ 1 4000 м слабый снег 10/0
[As op]
-20.7 -21.9 90 -24 -24 1019.3 1000.0
15 19.11 З 1 4000 м слабый снег 10/0
[As op]
-21.8 -23.0 90 -25 -25 1019.5 1000.2

 

Местоположение метеостанции Охотский Перевоз (Якутия, Россия): широта 61.87 долгота 135.50 высота над уровнем моря 141 м.

В архиве по умолчанию представлена погода в Охотском Перевозе за последнюю неделю. Архивные данные за месяц целиком и за предыдущие месяцы, начиная с января 2011 года, Вы можете получить, выбрав интересующий диапазон дат из раскрывающегося списка и нажав кнопку "Ввод!".


*Определитесь, кто Вы:
робот инопланетянин человек

Внимание! Время в таблицах - всемирное. Для получения местного времени необходимо прибавить поправку, которая в Охотском Перевозе равна 9 ч.

Смотрите также архив погоды в соседних городах и на ближайших метеорологических станциях:

Погода в Ытык-Кюёле (Якутия, Россия) (118 км)
Погода в Крест-Хальджае (Якутия, Россия) (120 км)
Погода в Теплом Ключе (Якутия, Россия) (121 км)
Погода в Чурапче (Якутия, Россия) (153 км)
Погода в Усть-Мае (Якутия, Россия) (179 км)
Погода в Амге (Якутия, Россия) (220 км)
Погода в Томпо (Якутия, Россия) (232 км)
Погода в Верхоянском Перевозе (Якутия, Россия) (241 км)
Погода в Восточной (Якутия, Россия) (259 км)
Погода в Югоренке (Якутия, Россия) (260 км)

Пояснения к столбцам:

Ветер - указаны скорость ветра в м/с - средняя за 10 мин, порывы в срок и между сроками (в фигурных скобках) и направление, откуда дует ветер: С - северный, СВ - северо-восточный, В - восточный, ЮВ - юго-восточный, Ю - южный, ЮЗ - юго-западный, З - западный, СЗ - северо-западный.
Видимость - горизонтальная дальность видимости в метрах или километрах. При видимости от 1 до 10 км при отсутствии осадков обычно наблюдается дымка, при ухудшении видимости до 1 км и менее - туман. В сухую погоду видимость может ухудшаться дымом, пылью или мглою.
Явления - указаны атмосферные явления, наблюдавшиеся в срок или в последний час перед сроком; фигурными скобками обозначены явления, наблюдавшиеся между сроками (за 1-3 часа до срока); квадратными скобками обозначены град или гололедные отложения с указанием их диаметра в мм.
Облачность - указаны через наклонную черту общая и нижняя облачность в баллах и высота нижней границы облаков в метрах; квадратными скобками обозначены формы облаков: Ci - перистые, Cs - перисто-слоистые, Cc - перисто-кучевые, Ac - высококучевые, As - высокослоистые, Sc - слоисто-кучевые, Ns - слоисто-дождевые, Cu - кучевые, Cb - кучево-дождевые. Подробнее классификацию облаков см. в Атласе облаков (PDF).
T - Температура воздуха - температура, измеренная на высоте 2 м над землей.
Td - Температура точки росы - температура, при понижении до которой содержащийся в воздухе водяной пар достигнет насыщения.
f - Относительная влажность воздуха - влажноcть воздуха, измеренная на высоте 2 м над землей.
Te - Эффективная температура - температура, которую ощущает одетый по сезону человек в тени. Характеристика душности погоды. При расчете учитывается влияние влажности воздуха и скорости ветра на теплоощущения человека.
Tes - Эффективная температура на солнце - температура, которую ощущает человек, с поправкой на солнечный нагрев. Характеристика знойности погоды. Зависит от высоты солнца над горизонтом, облачности и скорости ветра. Ночью, в пасмурную погоду, а также при ветре 12 м/с и более поправка равна нулю.
P - Атмосферное давление - приведенное к уровню моря атмосферное давление.
Po - Атмосферное давление - измеренное на уровне метеостанции атмосферное давление.
Tmin - Минимальная температура - минимум температуры воздуха на высоте 2 м над землей.
Tmax - Максимальная температура - максимум температуры воздуха на высоте 2 м над землей.
R - Количество осадков - Количество выпавших осадков за период времени, мм. При наведении курсора мыши на число - период времени, за который выпало указанное количество осадков.
R24 - Количество осадков - Количество выпавших осадков за 24 часа, мм.
S - Снежный покров - Высота снежного покрова, см. При наведении курсора мыши на число - состояние снежного покрова и степень покрытия местности в баллах.